When you browse on this site, cookies collect data to enhance your experience and personalize the content and advertising you see.
Visit our Privacy Policy to learn more. By continuing to use the site, you agree to this use of cookies and data.
  • In Latvia
  • List of Countries
  • For 7 days
  • Water Temperature
  • Satellite Maps
  • Weather Map
  • Weather Widgets
  • user-avatar
    Login

    Hourly Weather Vernier

    Today, 17 July, Wednesday

    Time Temperature Precipitation Wind Pressure Humidity
    00:00 +18°C° 0 mm 1 mps 725 mmHg 79%
    01:00 +18°C° 0 mm 1 mps 725 mmHg 81%
    02:00 +18°C° 0 mm 1 mps 725 mmHg 83%
    03:00 +16°C° 0 mm 1 mps 725 mmHg 84%
    04:00 +16°C° 0 mm 0 mps 725 mmHg 81%
    05:00 +17°C° 0 mm 0 mps 725 mmHg 78%
    06:00 +19°C° 0 mm 0 mps 725 mmHg 75%
    07:00 +21°C° 0 mm 0 mps 725 mmHg 69%
    08:00 +22°C° 0 mm 0 mps 725 mmHg 63%
    09:00 +26°C° 0 mm 1 mps 725 mmHg 57%
    10:00 +27°C° 0 mm 1 mps 725 mmHg 52%
    11:00 +28°C° 0 mm 1 mps 725 mmHg 48%
    12:00 +29°C° 0 mm 1 mps 724 mmHg 44%
    13:00 +29°C° 0 mm 1 mps 724 mmHg 43%
    14:00 +29°C° 0 mm 2 mps 724 mmHg 43%
    15:00 +28°C° 0 mm 2 mps 724 mmHg 43%
    16:00 +27°C° 0 mm 2 mps 724 mmHg 50%
    17:00 +26°C° 0 mm 1 mps 724 mmHg 58%
    18:00 +25°C° 0 mm 1 mps 723 mmHg 66%
    19:00 +23°C° 0 mm 1 mps 724 mmHg 66%
    20:00 +21°C° 0 mm 1 mps 724 mmHg 67%
    21:00 +19°C° 0 mm 1 mps 724 mmHg 68%
    22:00 +19°C° 0 mm 1 mps 724 mmHg 68%
    23:00 +19°C° 0 mm 1 mps 724 mmHg 68%

    Tomorrow, 18 July, Thursday

    Time Temperature Precipitation Wind Pressure Humidity
    00:00 +18°C° 0 mm 1 mps 723 mmHg 68%
    01:00 +18°C° 0 mm 1 mps 723 mmHg 70%
    02:00 +18°C° 0 mm 1 mps 723 mmHg 71%
    03:00 +18°C° 0 mm 1 mps 723 mmHg 73%
    04:00 +17°C° 0 mm 0 mps 723 mmHg 72%
    05:00 +18°C° 0 mm 0 mps 723 mmHg 72%
    06:00 +19°C° 0 mm 0 mps 723 mmHg 71%
    07:00 +22°C° 0 mm 1 mps 724 mmHg 64%
    08:00 +24°C° 0 mm 1 mps 724 mmHg 57%
    09:00 +26°C° 0 mm 1 mps 724 mmHg 50%
    10:00 +26°C° 0 mm 1 mps 724 mmHg 49%
    11:00 +27°C° 0 mm 1 mps 724 mmHg 48%
    12:00 +27°C° 0 mm 2 mps 723 mmHg 47%
    13:00 +27°C° 0 mm 2 mps 723 mmHg 48%
    14:00 +27°C° 0 mm 2 mps 723 mmHg 48%
    15:00 +27°C° 0 mm 2 mps 723 mmHg 49%
    16:00 +26°C° 0 mm 2 mps 724 mmHg 56%
    17:00 +25°C° 0 mm 1 mps 724 mmHg 63%
    18:00 +24°C° 0 mm 1 mps 724 mmHg 69%
    19:00 +23°C° 0 mm 1 mps 724 mmHg 71%
    20:00 +22°C° 0 mm 1 mps 725 mmHg 74%
    21:00 +20°C° 0 mm 1 mps 725 mmHg 76%
    22:00 +19°C° 0 mm 1 mps 725 mmHg 80%
    23:00 +19°C° 0 mm 1 mps 725 mmHg 84%

    Day after tomorrow, 19 July, Friday

    Time Temperature Precipitation Wind Pressure Humidity
    00:00 +18°C° 0 mm 1 mps 725 mmHg 88%
    01:00 +16°C° 0 mm 1 mps 725 mmHg 89%
    02:00 +16°C° 0 mm 1 mps 725 mmHg 90%
    03:00 +16°C° 0 mm 1 mps 725 mmHg 91%
    04:00 +16°C° 0 mm 0 mps 726 mmHg 88%
    05:00 +17°C° 0 mm 0 mps 726 mmHg 85%
    06:00 +18°C° 0 mm 0 mps 726 mmHg 82%
    07:00 +20°C° 0 mm 0 mps 726 mmHg 75%
    08:00 +22°C° 0 mm 0 mps 726 mmHg 67%
    09:00 +26°C° 0 mm 1 mps 726 mmHg 60%
    10:00 +27°C° 0 mm 1 mps 726 mmHg 56%
    11:00 +27°C° 0 mm 1 mps 726 mmHg 52%
    12:00 +28°C° 0 mm 1 mps 726 mmHg 48%
    13:00 +28°C° 0 mm 1 mps 726 mmHg 47%
    14:00 +29°C° 0 mm 2 mps 725 mmHg 46%
    15:00 +29°C° 0 mm 2 mps 725 mmHg 46%
    16:00 +28°C° 0 mm 1 mps 725 mmHg 53%
    17:00 +26°C° 0 mm 1 mps 725 mmHg 60%
    18:00 +25°C° 0 mm 1 mps 725 mmHg 68%
    19:00 +24°C° 0 mm 1 mps 725 mmHg 71%
    20:00 +22°C° 0 mm 1 mps 725 mmHg 74%
    21:00 +20°C° 0 mm 1 mps 726 mmHg 77%
    22:00 +19°C° 0 mm 1 mps 726 mmHg 77%
    23:00 +19°C° 0 mm 1 mps 725 mmHg 78%

    20 July, Saturday

    Time Temperature Precipitation Wind Pressure Humidity
    00:00 +19°C° 0 mm 1 mps 725 mmHg 79%
    01:00 +19°C° 0 mm 1 mps 725 mmHg 80%
    02:00 +18°C° 0 mm 1 mps 725 mmHg 82%
    03:00 +16°C° 0 mm 0 mps 725 mmHg 84%
    04:00 +17°C° 0 mm 0 mps 725 mmHg 81%
    05:00 +18°C° 0 mm 0 mps 726 mmHg 79%
    06:00 +19°C° 0 mm 0 mps 726 mmHg 77%
    07:00 +23°C° 0 mm 1 mps 726 mmHg 68%
    08:00 +25°C° 0 mm 2 mps 726 mmHg 60%
    09:00 +27°C° 0 mm 2 mps 727 mmHg 52%
    10:00 +29°C° 0 mm 3 mps 727 mmHg 48%
    11:00 +30°C° 0 mm 3 mps 727 mmHg 44%
    12:00 +32°C° 0 mm 4 mps 727 mmHg 40%
    13:00 +32°C° 0 mm 4 mps 727 mmHg 41%
    14:00 +31°C° 0 mm 3 mps 726 mmHg 41%
    15:00 +31°C° 0 mm 3 mps 726 mmHg 42%
    16:00 +30°C° 0 mm 2 mps 726 mmHg 49%
    17:00 +29°C° 0 mm 1 mps 727 mmHg 57%
    18:00 +26°C° 0 mm 0 mps 727 mmHg 64%
    19:00 +24°C° 0.1 mm 0 mps 727 mmHg 66%
    20:00 +24°C° 0.1 mm 1 mps 728 mmHg 68%
    21:00 +23°C° 0.1 mm 1 mps 728 mmHg 70%
    22:00 +22°C° 0.1 mm 1 mps 728 mmHg 74%
    23:00 +21°C° 0.1 mm 1 mps 728 mmHg 77%

    21 July, Sunday

    Time Temperature Precipitation Wind Pressure Humidity
    00:00 +21°C° 0.1 mm 1 mps 728 mmHg 80%
    01:00 +20°C° 0 mm 1 mps 728 mmHg 81%
    02:00 +20°C° 0 mm 1 mps 728 mmHg 82%
    03:00 +20°C° 0 mm 1 mps 728 mmHg 83%
    04:00 +21°C° 0 mm 1 mps 729 mmHg 82%
    05:00 +22°C° 0 mm 1 mps 729 mmHg 80%
    06:00 +23°C° 0 mm 1 mps 729 mmHg 79%
    07:00 +25°C° 0 mm 1 mps 730 mmHg 71%
    08:00 +27°C° 0 mm 1 mps 730 mmHg 64%
    09:00 +29°C° 0 mm 1 mps 730 mmHg 56%
    10:00 +30°C° 0 mm 1 mps 730 mmHg 52%
    11:00 +31°C° 0 mm 1 mps 730 mmHg 47%
    12:00 +32°C° 0 mm 2 mps 730 mmHg 43%
    13:00 +33°C° 0 mm 1 mps 730 mmHg 42%
    14:00 +33°C° 0 mm 1 mps 729 mmHg 40%
    15:00 +33°C° 0 mm 1 mps 729 mmHg 38%
    16:00 +32°C° 0 mm 1 mps 729 mmHg 46%
    17:00 +30°C° 0 mm 1 mps 729 mmHg 54%
    18:00 +27°C° 0 mm 0 mps 729 mmHg 62%
    19:00 +27°C° 0 mm 1 mps 729 mmHg 62%
    20:00 +26°C° 0 mm 1 mps 729 mmHg 63%
    21:00 +24°C° 0 mm 1 mps 729 mmHg 64%
    22:00 +24°C° 0 mm 1 mps 729 mmHg 66%
    23:00 +23°C° 0 mm 1 mps 729 mmHg 69%

    22 July, Monday

    Time Temperature Precipitation Wind Pressure Humidity
    00:00 +22°C° 0 mm 1 mps 729 mmHg 72%
    01:00 +22°C° 0 mm 1 mps 729 mmHg 74%
    02:00 +19°C° 0 mm 0 mps 729 mmHg 76%
    03:00 +19°C° 0 mm 0 mps 728 mmHg 78%
    04:00 +20°C° 0.1 mm 0 mps 729 mmHg 79%
    05:00 +20°C° 0.1 mm 0 mps 729 mmHg 80%
    06:00 +21°C° 0.1 mm 0 mps 729 mmHg 81%
    07:00 +23°C° 0 mm 0 mps 729 mmHg 73%
    08:00 +28°C° 0 mm 1 mps 729 mmHg 65%
    09:00 +30°C° 0 mm 1 mps 729 mmHg 57%
    10:00 +31°C° 0 mm 1 mps 728 mmHg 53%
    11:00 +32°C° 0 mm 1 mps 728 mmHg 49%
    12:00 +34°C° 0 mm 1 mps 728 mmHg 44%
    13:00 +34°C° 0 mm 1 mps 728 mmHg 44%
    14:00 +34°C° 0 mm 1 mps 728 mmHg 43%
    15:00 +34°C° 0 mm 1 mps 728 mmHg 42%
    16:00 +33°C° 0 mm 1 mps 727 mmHg 50%
    17:00 +31°C° 0 mm 1 mps 727 mmHg 58%
    18:00 +30°C° 0 mm 1 mps 727 mmHg 66%
    19:00 +28°C° 0 mm 1 mps 727 mmHg 67%
    20:00 +26°C° 0 mm 1 mps 728 mmHg 69%
    21:00 +23°C° 0 mm 0 mps 728 mmHg 71%
    22:00 +22°C° 0.1 mm 0 mps 728 mmHg 73%
    23:00 +24°C° 0.1 mm 1 mps 728 mmHg 75%
    Show more